• In Österreich
  • Länderverzeichnis
  • Für 7 Tage
  • Wassertemperatur
  • Satellitenkarten
  • Wetterkarte
  • News
  • Widgets
  • user-avatar
    Anmelden

    Stündliche Wetter Biskira

    Heute, 19 Oktober, Donnerstag

    Zeit Temperatur Niederschläge Wind Luftdruck Luftfeuchtigkeit
    00:00 +23°C° 0 mm 2 m/S 753 mmHg 39%
    01:00 +23°C° 0 mm 2 m/S 753 mmHg 39%
    02:00 +23°C° 0 mm 2 m/S 752 mmHg 40%
    03:00 +21°C° 0 mm 2 m/S 752 mmHg 40%
    04:00 +21°C° 0 mm 2 m/S 752 mmHg 41%
    05:00 +21°C° 0 mm 2 m/S 752 mmHg 41%
    06:00 +21°C° 0 mm 1 m/S 752 mmHg 42%
    07:00 +23°C° 0 mm 2 m/S 752 mmHg 39%
    08:00 +24°C° 0 mm 2 m/S 753 mmHg 36%
    09:00 +25°C° 0 mm 2 m/S 753 mmHg 33%
    10:00 +26°C° 0 mm 3 m/S 752 mmHg 31%
    11:00 +27°C° 0 mm 3 m/S 752 mmHg 30%
    12:00 +28°C° 0 mm 4 m/S 752 mmHg 29%
    13:00 +28°C° 0 mm 4 m/S 751 mmHg 29%
    14:00 +28°C° 0 mm 4 m/S 750 mmHg 29%
    15:00 +29°C° 0 mm 5 m/S 749 mmHg 29%
    16:00 +28°C° 0 mm 5 m/S 750 mmHg 30%
    17:00 +28°C° 0 mm 4 m/S 750 mmHg 31%
    18:00 +27°C° 0 mm 4 m/S 750 mmHg 33%
    19:00 +27°C° 0,2 mm 4 m/S 750 mmHg 37%
    20:00 +26°C° 0,2 mm 4 m/S 751 mmHg 42%
    21:00 +25°C° 0,2 mm 4 m/S 751 mmHg 46%
    22:00 +23°C° 1,2 mm 4 m/S 751 mmHg 53%
    23:00 +22°C° 1,2 mm 4 m/S 751 mmHg 60%

    Morgen, 20 Oktober, Freitag

    Zeit Temperatur Niederschläge Wind Luftdruck Luftfeuchtigkeit
    00:00 +21°C° 1,2 mm 4 m/S 751 mmHg 67%
    01:00 +20°C° 1 mm 3 m/S 751 mmHg 68%
    02:00 +20°C° 1 mm 2 m/S 751 mmHg 69%
    03:00 +21°C° 1 mm 1 m/S 751 mmHg 70%
    04:00 +21°C° 0 mm 1 m/S 751 mmHg 70%
    05:00 +20°C° 0 mm 2 m/S 751 mmHg 70%
    06:00 +20°C° 0 mm 2 m/S 751 mmHg 70%
    07:00 +20°C° 0 mm 3 m/S 751 mmHg 64%
    08:00 +21°C° 0 mm 4 m/S 752 mmHg 59%
    09:00 +22°C° 0 mm 5 m/S 752 mmHg 53%
    10:00 +22°C° 0,2 mm 5 m/S 752 mmHg 48%
    11:00 +23°C° 0,2 mm 5 m/S 752 mmHg 43%
    12:00 +24°C° 0,2 mm 6 m/S 752 mmHg 38%
    13:00 +26°C° 0,1 mm 5 m/S 752 mmHg 37%
    14:00 +26°C° 0,1 mm 5 m/S 752 mmHg 36%
    15:00 +26°C° 0,1 mm 5 m/S 752 mmHg 36%
    16:00 +25°C° 0 mm 5 m/S 752 mmHg 38%
    17:00 +25°C° 0 mm 4 m/S 752 mmHg 41%
    18:00 +23°C° 0 mm 4 m/S 753 mmHg 43%
    19:00 +23°C° 0 mm 4 m/S 754 mmHg 46%
    20:00 +22°C° 0 mm 4 m/S 754 mmHg 49%
    21:00 +22°C° 0 mm 4 m/S 755 mmHg 51%
    22:00 +22°C° 0 mm 4 m/S 755 mmHg 53%
    23:00 +21°C° 0 mm 4 m/S 755 mmHg 54%

    übermorgen, 21 Oktober, Samstag

    Zeit Temperatur Niederschläge Wind Luftdruck Luftfeuchtigkeit
    00:00 +21°C° 0 mm 4 m/S 755 mmHg 56%
    01:00 +20°C° 0 mm 4 m/S 755 mmHg 57%
    02:00 +20°C° 0 mm 4 m/S 755 mmHg 58%
    03:00 +20°C° 0 mm 4 m/S 755 mmHg 59%
    04:00 +20°C° 0 mm 4 m/S 755 mmHg 60%
    05:00 +19°C° 0 mm 4 m/S 755 mmHg 61%
    06:00 +19°C° 0 mm 4 m/S 756 mmHg 62%
    07:00 +21°C° 0 mm 4 m/S 756 mmHg 57%
    08:00 +22°C° 0 mm 4 m/S 757 mmHg 52%
    09:00 +23°C° 0 mm 4 m/S 757 mmHg 47%
    10:00 +25°C° 0 mm 3 m/S 757 mmHg 44%
    11:00 +26°C° 0 mm 3 m/S 757 mmHg 41%
    12:00 +27°C° 0 mm 3 m/S 757 mmHg 38%
    13:00 +27°C° 0 mm 2 m/S 756 mmHg 37%
    14:00 +28°C° 0 mm 2 m/S 756 mmHg 37%
    15:00 +28°C° 0 mm 2 m/S 756 mmHg 36%
    16:00 +27°C° 0 mm 1 m/S 756 mmHg 38%
    17:00 +27°C° 0 mm 1 m/S 756 mmHg 40%
    18:00 +26°C° 0 mm 1 m/S 757 mmHg 43%
    19:00 +25°C° 0 mm 1 m/S 757 mmHg 44%
    20:00 +25°C° 0 mm 1 m/S 757 mmHg 45%
    21:00 +22°C° 0 mm 0 m/S 758 mmHg 47%
    22:00 +24°C° 0 mm 1 m/S 758 mmHg 48%
    23:00 +24°C° 0 mm 1 m/S 758 mmHg 48%

    22 Oktober, Sonntag

    Zeit Temperatur Niederschläge Wind Luftdruck Luftfeuchtigkeit
    00:00 +23°C° 0 mm 1 m/S 758 mmHg 49%
    01:00 +23°C° 0 mm 1 m/S 758 mmHg 51%
    02:00 +23°C° 0 mm 1 m/S 757 mmHg 53%
    03:00 +23°C° 0 mm 1 m/S 757 mmHg 54%
    04:00 +22°C° 0 mm 1 m/S 758 mmHg 57%
    05:00 +22°C° 0 mm 1 m/S 758 mmHg 60%
    06:00 +21°C° 0 mm 1 m/S 758 mmHg 64%
    07:00 +23°C° 0 mm 1 m/S 758 mmHg 60%
    08:00 +24°C° 0 mm 1 m/S 758 mmHg 57%
    09:00 +25°C° 0 mm 2 m/S 759 mmHg 54%
    10:00 +26°C° 0 mm 1 m/S 758 mmHg 51%
    11:00 +26°C° 0 mm 1 m/S 758 mmHg 48%
    12:00 +27°C° 0 mm 1 m/S 757 mmHg 45%
    13:00 +27°C° 0 mm 2 m/S 757 mmHg 43%
    14:00 +28°C° 0 mm 2 m/S 757 mmHg 40%
    15:00 +28°C° 0 mm 2 m/S 756 mmHg 38%
    16:00 +28°C° 0 mm 2 m/S 757 mmHg 39%
    17:00 +27°C° 0 mm 2 m/S 757 mmHg 41%
    18:00 +27°C° 0 mm 2 m/S 757 mmHg 42%
    19:00 +26°C° 0 mm 2 m/S 757 mmHg 43%
    20:00 +26°C° 0 mm 2 m/S 758 mmHg 44%
    21:00 +25°C° 0 mm 2 m/S 758 mmHg 45%
    22:00 +25°C° 0 mm 2 m/S 758 mmHg 47%
    23:00 +24°C° 0 mm 2 m/S 758 mmHg 49%

    23 Oktober, Montag

    Zeit Temperatur Niederschläge Wind Luftdruck Luftfeuchtigkeit
    00:00 +24°C° 0 mm 3 m/S 757 mmHg 52%
    01:00 +24°C° 0 mm 3 m/S 757 mmHg 54%
    02:00 +22°C° 0 mm 3 m/S 757 mmHg 56%
    03:00 +22°C° 0 mm 3 m/S 757 mmHg 59%
    04:00 +22°C° 0 mm 3 m/S 757 mmHg 59%
    05:00 +21°C° 0 mm 2 m/S 757 mmHg 60%
    06:00 +21°C° 0 mm 2 m/S 757 mmHg 61%
    07:00 +23°C° 0 mm 2 m/S 757 mmHg 56%
    08:00 +24°C° 0 mm 2 m/S 758 mmHg 52%
    09:00 +25°C° 0 mm 2 m/S 758 mmHg 47%
    10:00 +26°C° 0 mm 2 m/S 758 mmHg 44%
    11:00 +27°C° 0 mm 2 m/S 757 mmHg 42%
    12:00 +28°C° 0 mm 2 m/S 757 mmHg 39%
    13:00 +28°C° 0 mm 3 m/S 757 mmHg 37%
    14:00 +28°C° 0 mm 3 m/S 756 mmHg 36%
    15:00 +29°C° 0 mm 3 m/S 756 mmHg 34%
    16:00 +28°C° 0 mm 3 m/S 756 mmHg 36%
    17:00 +27°C° 0 mm 3 m/S 756 mmHg 38%
    18:00 +26°C° 0 mm 2 m/S 757 mmHg 40%
    19:00 +26°C° 0 mm 2 m/S 757 mmHg 42%
    20:00 +25°C° 0 mm 3 m/S 757 mmHg 44%
    21:00 +24°C° 0 mm 3 m/S 758 mmHg 46%
    22:00 +24°C° 0 mm 3 m/S 758 mmHg 47%
    23:00 +24°C° 0 mm 3 m/S 757 mmHg 47%

    24 Oktober, Dienstag

    Zeit Temperatur Niederschläge Wind Luftdruck Luftfeuchtigkeit
    00:00 +22°C° 0 mm 3 m/S 757 mmHg 48%
    01:00 +22°C° 0 mm 3 m/S 757 mmHg 48%
    02:00 +21°C° 0 mm 3 m/S 757 mmHg 48%
    03:00 +21°C° 0 mm 3 m/S 757 mmHg 48%
    04:00 +20°C° 0 mm 2 m/S 757 mmHg 50%
    05:00 +20°C° 0 mm 2 m/S 757 mmHg 51%
    06:00 +20°C° 0 mm 2 m/S 757 mmHg 52%
    07:00 +21°C° 0 mm 2 m/S 758 mmHg 49%
    08:00 +23°C° 0 mm 2 m/S 758 mmHg 45%
    09:00 +24°C° 0 mm 2 m/S 758 mmHg 42%
    10:00 +24°C° 0 mm 2 m/S 758 mmHg 40%
    11:00 +25°C° 0 mm 2 m/S 758 mmHg 38%
    12:00 +26°C° 0 mm 2 m/S 757 mmHg 37%
    13:00 +26°C° 0 mm 2 m/S 757 mmHg 35%
    14:00 +26°C° 0 mm 2 m/S 757 mmHg 34%
    15:00 +27°C° 0 mm 2 m/S 756 mmHg 32%
    16:00 +26°C° 0 mm 2 m/S 756 mmHg 34%
    17:00 +26°C° 0 mm 1 m/S 757 mmHg 37%
    18:00 +25°C° 0 mm 1 m/S 757 mmHg 39%
    19:00 +24°C° 0 mm 1 m/S 757 mmHg 41%
    20:00 +24°C° 0 mm 1 m/S 757 mmHg 43%
    21:00 +23°C° 0 mm 1 m/S 758 mmHg 45%
    22:00 +23°C° 0 mm 1 m/S 758 mmHg 47%
    23:00 +22°C° 0 mm 1 m/S 757 mmHg 48%
    Mehr zeigen